• In Moldova, Republic
  • List of Countries
  • For 7 days
  • Water Temperature
  • Satellite Maps
  • Weather Map
  • Weather Widgets
  • user-avatar
    Login

    Hourly Weather Hobart

    Today, 28 April, Friday

    Time Temperature Precipitation Wind Pressure Humidity
    00:00 +10°C° 0 mm 5 mps 747 mmHg 92%
    01:00 +10°C° 0 mm 5 mps 747 mmHg 91%
    02:00 +10°C° 0 mm 5 mps 747 mmHg 92%
    03:00 +10°C° 0 mm 4 mps 747 mmHg 93%
    04:00 +10°C° 0 mm 3 mps 747 mmHg 95%
    05:00 +9°C° 0 mm 3 mps 747 mmHg 96%
    06:00 +9°C° 0 mm 3 mps 747 mmHg 96%
    07:00 +9°C° 0 mm 3 mps 748 mmHg 97%
    08:00 +11°C° 0 mm 3 mps 748 mmHg 89%
    09:00 +12°C° 0 mm 3 mps 748 mmHg 81%
    10:00 +14°C° 0 mm 5 mps 747 mmHg 71%
    11:00 +15°C° 0 mm 5 mps 747 mmHg 69%
    12:00 +16°C° 0 mm 5 mps 746 mmHg 67%
    13:00 +16°C° 0 mm 5 mps 746 mmHg 65%
    14:00 +16°C° 0 mm 6 mps 746 mmHg 69%
    15:00 +15°C° 0 mm 6 mps 745 mmHg 72%
    16:00 +14°C° 0 mm 5 mps 745 mmHg 75%
    17:00 +14°C° 0 mm 5 mps 745 mmHg 78%
    18:00 +14°C° 0 mm 5 mps 745 mmHg 81%
    19:00 +14°C° 0 mm 5 mps 745 mmHg 84%
    20:00 +14°C° 0 mm 6 mps 745 mmHg 83%
    21:00 +14°C° 0 mm 6 mps 745 mmHg 82%
    22:00 +14°C° 0 mm 6 mps 745 mmHg 81%
    23:00 +13°C° 0 mm 6 mps 745 mmHg 82%

    Tomorrow, 29 April, Saturday

    Time Temperature Precipitation Wind Pressure Humidity
    00:00 +13°C° 0 mm 6 mps 745 mmHg 82%
    01:00 +12°C° 0 mm 7 mps 745 mmHg 83%
    02:00 +11°C° 0 mm 7 mps 745 mmHg 82%
    03:00 +11°C° 0 mm 7 mps 746 mmHg 81%
    04:00 +11°C° 0 mm 7 mps 746 mmHg 80%
    05:00 +11°C° 0 mm 7 mps 746 mmHg 80%
    06:00 +11°C° 0 mm 7 mps 747 mmHg 80%
    07:00 +10°C° 0 mm 7 mps 747 mmHg 80%
    08:00 +11°C° 0 mm 6 mps 748 mmHg 76%
    09:00 +13°C° 0 mm 6 mps 748 mmHg 73%
    10:00 +13°C° 0 mm 6 mps 749 mmHg 70%
    11:00 +14°C° 0 mm 6 mps 749 mmHg 67%
    12:00 +14°C° 0 mm 6 mps 749 mmHg 65%
    13:00 +15°C° 0 mm 6 mps 750 mmHg 62%
    14:00 +15°C° 0 mm 5 mps 750 mmHg 64%
    15:00 +14°C° 0 mm 5 mps 750 mmHg 66%
    16:00 +14°C° 0 mm 4 mps 750 mmHg 67%
    17:00 +12°C° 0 mm 4 mps 751 mmHg 75%
    18:00 +11°C° 0 mm 3 mps 751 mmHg 84%
    19:00 +9°C° 0 mm 3 mps 752 mmHg 92%
    20:00 +8°C° 0 mm 3 mps 752 mmHg 93%
    21:00 +8°C° 0 mm 2 mps 752 mmHg 95%
    22:00 +7°C° 0 mm 2 mps 752 mmHg 96%
    23:00 +7°C° 0 mm 2 mps 752 mmHg 96%

    Day after tomorrow, 30 April, Sunday

    Time Temperature Precipitation Wind Pressure Humidity
    00:00 +7°C° 0 mm 2 mps 752 mmHg 96%
    01:00 +6°C° 0 mm 2 mps 752 mmHg 96%
    02:00 +6°C° 0 mm 2 mps 751 mmHg 96%
    03:00 +6°C° 0 mm 2 mps 751 mmHg 96%
    04:00 +6°C° 0 mm 2 mps 751 mmHg 96%
    05:00 +6°C° 0 mm 2 mps 751 mmHg 95%
    06:00 +6°C° 0 mm 2 mps 751 mmHg 95%
    07:00 +6°C° 0 mm 2 mps 751 mmHg 95%
    08:00 +8°C° 0 mm 2 mps 751 mmHg 87%
    09:00 +12°C° 0 mm 2 mps 751 mmHg 78%
    10:00 +14°C° 0 mm 2 mps 751 mmHg 70%
    11:00 +15°C° 0 mm 2 mps 750 mmHg 64%
    12:00 +17°C° 0 mm 2 mps 750 mmHg 59%
    13:00 +18°C° 0 mm 2 mps 749 mmHg 53%
    14:00 +17°C° 0 mm 2 mps 749 mmHg 56%
    15:00 +17°C° 0 mm 2 mps 748 mmHg 59%
    16:00 +17°C° 0 mm 2 mps 748 mmHg 62%
    17:00 +14°C° 0 mm 2 mps 748 mmHg 71%
    18:00 +12°C° 0 mm 2 mps 748 mmHg 81%
    19:00 +9°C° 0 mm 2 mps 748 mmHg 90%
    20:00 +9°C° 0 mm 2 mps 748 mmHg 91%
    21:00 +9°C° 0 mm 3 mps 747 mmHg 92%
    22:00 +8°C° 0 mm 3 mps 747 mmHg 93%
    23:00 +8°C° 0 mm 3 mps 747 mmHg 92%

    1 May, Monday

    Time Temperature Precipitation Wind Pressure Humidity
    00:00 +8°C° 0 mm 3 mps 746 mmHg 92%
    01:00 +8°C° 0 mm 4 mps 745 mmHg 91%
    02:00 +8°C° 0 mm 4 mps 745 mmHg 90%
    03:00 +10°C° 0 mm 4 mps 744 mmHg 89%
    04:00 +10°C° 0 mm 4 mps 743 mmHg 88%
    05:00 +10°C° 0 mm 5 mps 743 mmHg 86%
    06:00 +10°C° 0 mm 5 mps 742 mmHg 83%
    07:00 +12°C° 0 mm 5 mps 742 mmHg 81%
    08:00 +14°C° 0 mm 6 mps 742 mmHg 75%
    09:00 +15°C° 0 mm 7 mps 741 mmHg 69%
    10:00 +17°C° 0 mm 8 mps 741 mmHg 62%
    11:00 +15°C° 0.3 mm 7 mps 741 mmHg 69%
    12:00 +14°C° 0.3 mm 7 mps 740 mmHg 76%
    13:00 +12°C° 0.3 mm 7 mps 740 mmHg 82%
    14:00 +11°C° 0.1 mm 7 mps 741 mmHg 79%
    15:00 +11°C° 0.1 mm 7 mps 741 mmHg 76%
    16:00 +10°C° 0.1 mm 7 mps 741 mmHg 72%
    17:00 +9°C° 0 mm 7 mps 742 mmHg 75%
    18:00 +8°C° 0 mm 6 mps 742 mmHg 77%
    19:00 +7°C° 0 mm 5 mps 743 mmHg 80%
    20:00 +6°C° 0 mm 5 mps 743 mmHg 82%
    21:00 +6°C° 0 mm 5 mps 743 mmHg 85%
    22:00 +6°C° 0 mm 4 mps 744 mmHg 87%
    23:00 +6°C° 0.2 mm 5 mps 744 mmHg 87%

    2 May, Tuesday

    Time Temperature Precipitation Wind Pressure Humidity
    00:00 +6°C° 0.2 mm 5 mps 744 mmHg 88%
    01:00 +6°C° 0.2 mm 5 mps 744 mmHg 88%
    02:00 +4°C° 0.2 mm 6 mps 744 mmHg 87%
    03:00 +4°C° 0.2 mm 6 mps 744 mmHg 86%
    04:00 +3°C° 0.2 mm 7 mps 744 mmHg 86%
    05:00 +3°C° 0 mm 7 mps 745 mmHg 85%
    06:00 +2°C° 0 mm 7 mps 745 mmHg 85%
    07:00 +2°C° 0 mm 7 mps 745 mmHg 85%
    08:00 +4°C° 0.1 mm 7 mps 746 mmHg 78%
    09:00 +5°C° 0.1 mm 8 mps 746 mmHg 71%
    10:00 +6°C° 0.1 mm 9 mps 747 mmHg 64%
    11:00 +7°C° 0.1 mm 9 mps 747 mmHg 60%
    12:00 +7°C° 0.1 mm 9 mps 747 mmHg 56%
    13:00 +8°C° 0.1 mm 9 mps 747 mmHg 52%
    14:00 +7°C° 0.1 mm 9 mps 748 mmHg 56%
    15:00 +7°C° 0.1 mm 8 mps 748 mmHg 59%
    16:00 +6°C° 0.1 mm 8 mps 749 mmHg 63%
    17:00 +5°C° 0.1 mm 7 mps 749 mmHg 69%
    18:00 +4°C° 0.1 mm 7 mps 750 mmHg 75%
    19:00 +3°C° 0.1 mm 6 mps 751 mmHg 81%
    20:00 +3°C° 0.1 mm 6 mps 751 mmHg 83%
    21:00 +3°C° 0.1 mm 6 mps 752 mmHg 84%
    22:00 +2°C° 0.1 mm 6 mps 752 mmHg 85%
    23:00 +3°C° 0.1 mm 6 mps 753 mmHg 84%

    3 May, Wednesday

    Time Temperature Precipitation Wind Pressure Humidity
    00:00 +3°C° 0.1 mm 6 mps 753 mmHg 83%
    01:00 +4°C° 0.1 mm 6 mps 754 mmHg 83%
    02:00 +3°C° 0 mm 6 mps 754 mmHg 82%
    03:00 +3°C° 0 mm 6 mps 754 mmHg 82%
    04:00 +3°C° 0 mm 6 mps 755 mmHg 81%
    05:00 +3°C° 0 mm 6 mps 755 mmHg 82%
    06:00 +3°C° 0 mm 6 mps 756 mmHg 83%
    07:00 +3°C° 0 mm 5 mps 756 mmHg 85%
    08:00 +5°C° 0 mm 5 mps 757 mmHg 78%
    09:00 +6°C° 0 mm 5 mps 757 mmHg 71%
    10:00 +8°C° 0 mm 6 mps 758 mmHg 64%
    11:00 +8°C° 0 mm 5 mps 758 mmHg 62%
    12:00 +9°C° 0 mm 5 mps 758 mmHg 60%
    13:00 +9°C° 0 mm 5 mps 758 mmHg 57%
    14:00 +9°C° 0 mm 5 mps 758 mmHg 59%
    15:00 +9°C° 0 mm 5 mps 758 mmHg 60%
    16:00 +10°C° 0 mm 4 mps 759 mmHg 61%
    17:00 +8°C° 0 mm 4 mps 759 mmHg 68%
    18:00 +6°C° 0 mm 4 mps 760 mmHg 75%
    19:00 +5°C° 0 mm 3 mps 760 mmHg 82%
    20:00 +4°C° 0 mm 3 mps 760 mmHg 85%
    21:00 +3°C° 0 mm 3 mps 760 mmHg 89%
    22:00 +3°C° 0 mm 3 mps 761 mmHg 93%
    23:00 +2°C° 0 mm 3 mps 761 mmHg 93%
    Show more